RYR6CA LFBT-EIDW

Flight info

Callsign RYR6CA
Flight time 1h 49m
Altitude 36000
Route LMB G17 USAKU DCT AGN DCT SECHE DCT UVELI DCT CNA DCT MANAK DCT MUREL DCT NOZHU DCT SHIRI DCT UNFIT DCT PENWU DCT NICXI DCT LEMGU M17 VATRY VATRY4L
Aircraft B738/M-SDE2E3FGHIRWXY/LB1

Departure

Time 2026-05-08 06:54
Airport Tarbes-Lourdes-Pyrénées Airport (LFBT)

Arrival

Time 2026-05-08 08:43
Airport Dublin Airport (EIDW)
Time Latitude Longitude Altitude Speed Heading
2026-05-08 06:30 43.18476 0.00348 1191 ft 0 kts 33°
2026-05-08 06:47 43.18474 0.00346 1192 ft 3 kts 32°
2026-05-08 06:47 43.18457 0.00337 1192 ft 4 kts 314°
2026-05-08 06:47 43.18441 0.00349 1189 ft 4 kts 13°
2026-05-08 06:47 43.18417 0.00348 1190 ft 4 kts 333°
2026-05-08 06:48 43.18399 0.00370 1190 ft 3 kts 294°
2026-05-08 06:48 43.18397 0.00374 1190 ft 0 kts 292°
2026-05-08 06:52 43.18407 0.00291 1190 ft 17 kts 278°
2026-05-08 06:52 43.18445 0.00142 1190 ft 17 kts 311°
2026-05-08 06:52 43.18490 0.00002 1185 ft 16 kts 284°
2026-05-08 06:53 43.18518 -0.00142 1197 ft 15 kts 285°
2026-05-08 06:53 43.18548 -0.00257 1196 ft 8 kts 312°
2026-05-08 06:53 43.18543 -0.00288 1197 ft 3 kts 207°
2026-05-08 06:53 43.18426 -0.00350 1202 ft 53 kts 200°
2026-05-08 06:54 43.17824 -0.00654 1218 ft 129 kts 200°
2026-05-08 06:54 43.16782 -0.01178 1357 ft 182 kts 200°
2026-05-08 06:54 43.15564 -0.01815 2301 ft 184 kts 202°
2026-05-08 06:54 43.14440 -0.02446 3625 ft 173 kts 201°
2026-05-08 06:55 43.13267 -0.03093 4230 ft 191 kts 201°
2026-05-08 06:55 43.11967 -0.03728 4714 ft 211 kts 188°
2026-05-08 06:55 43.10444 -0.03461 4942 ft 235 kts 158°
2026-05-08 06:55 43.09049 -0.02221 5509 ft 245 kts 133°
2026-05-08 06:56 43.08159 -0.00130 5964 ft 266 kts 102°
2026-05-08 06:56 43.08289 0.02374 6788 ft 270 kts 68°
2026-05-08 06:56 43.09421 0.04432 7553 ft 278 kts 37°
2026-05-08 06:56 43.11057 0.05883 8376 ft 283 kts 33°
2026-05-08 06:57 43.12815 0.07137 9151 ft 290 kts 14°
2026-05-08 06:57 43.14820 0.07394 10045 ft 291 kts
2026-05-08 06:57 43.16897 0.07389 10525 ft 309 kts 359°
2026-05-08 06:57 43.19139 0.07355 10704 ft 335 kts 359°
2026-05-08 06:58 43.21511 0.07331 11246 ft 346 kts 359°
2026-05-08 06:58 43.23900 0.07326 11990 ft 351 kts 359°
2026-05-08 06:58 43.26360 0.07339 12701 ft 357 kts 360°
2026-05-08 06:58 43.28870 0.07367 13344 ft 366 kts 360°
2026-05-08 06:59 43.31494 0.07405 13506 ft 388 kts 360°
2026-05-08 06:59 43.34261 0.07453 13670 ft 408 kts 360°
2026-05-08 06:59 43.37151 0.07509 13938 ft 421 kts
2026-05-08 06:59 43.40100 0.07571 14473 ft 425 kts
2026-05-08 07:00 43.43062 0.07636 15146 ft 426 kts
2026-05-08 07:00 43.46032 0.07701 15783 ft 428 kts
2026-05-08 07:00 43.49026 0.07766 16350 ft 432 kts
2026-05-08 07:00 43.52040 0.07832 16912 ft 435 kts
2026-05-08 07:01 43.55078 0.07898 17480 ft 438 kts
2026-05-08 07:01 43.58134 0.07964 18046 ft 441 kts
2026-05-08 07:01 43.61210 0.08031 18551 ft 444 kts
2026-05-08 07:01 43.64306 0.08098 19049 ft 446 kts 360°
2026-05-08 07:02 43.67411 0.08165 19570 ft 447 kts 359°
2026-05-08 07:02 43.70531 0.08233 20060 ft 449 kts 359°
2026-05-08 07:02 43.73665 0.08300 20525 ft 452 kts 359°
2026-05-08 07:02 43.76817 0.08368 20977 ft 454 kts 359°
2026-05-08 07:03 43.79982 0.08437 21407 ft 456 kts 359°
2026-05-08 07:03 43.83166 0.08506 21849 ft 459 kts 359°
2026-05-08 07:03 43.86360 0.08576 22311 ft 459 kts 359°
2026-05-08 07:03 43.89561 0.08646 22733 ft 461 kts 359°
2026-05-08 07:04 43.92779 0.08716 23124 ft 464 kts 359°
2026-05-08 07:04 43.96012 0.08787 23497 ft 466 kts 358°
2026-05-08 07:04 43.99260 0.08858 23818 ft 468 kts 358°
2026-05-08 07:04 44.02522 0.08930 24136 ft 469 kts 358°
2026-05-08 07:05 44.05785 0.09001 24534 ft 469 kts 358°
2026-05-08 07:05 44.09044 0.09074 24879 ft 469 kts 358°
2026-05-08 07:05 44.12314 0.09146 25145 ft 472 kts 358°
2026-05-08 07:05 44.15605 0.09217 25395 ft 474 kts 358°
2026-05-08 07:06 44.18907 0.09290 25657 ft 475 kts 358°
2026-05-08 07:06 44.22218 0.09363 25909 ft 476 kts 358°
2026-05-08 07:06 44.25536 0.09437 26169 ft 477 kts 358°
2026-05-08 07:06 44.28843 0.09510 26482 ft 475 kts 358°
2026-05-08 07:07 44.32149 0.09585 26853 ft 473 kts 358°
2026-05-08 07:07 44.35435 0.09659 27213 ft 472 kts 357°
2026-05-08 07:07 44.38713 0.09732 27547 ft 471 kts 357°
2026-05-08 07:07 44.41985 0.09805 27872 ft 470 kts 357°
2026-05-08 07:08 44.45246 0.09877 28288 ft 467 kts 357°
2026-05-08 07:08 44.48488 0.09950 28719 ft 465 kts 357°
2026-05-08 07:08 44.51715 0.10023 29096 ft 463 kts 356°
2026-05-08 07:08 44.54935 0.10094 29438 ft 463 kts 356°
2026-05-08 07:09 44.58150 0.10165 29796 ft 461 kts 356°
2026-05-08 07:09 44.61354 0.10237 30151 ft 460 kts 356°
2026-05-08 07:09 44.64543 0.10309 30502 ft 458 kts 356°
2026-05-08 07:09 44.67721 0.10380 30820 ft 456 kts 356°
2026-05-08 07:10 44.70894 0.10451 31089 ft 456 kts 356°
2026-05-08 07:10 44.74068 0.10522 31341 ft 456 kts 356°
2026-05-08 07:10 44.77194 0.10593 31623 ft 455 kts 356°
2026-05-08 07:10 44.80403 0.10665 31929 ft 454 kts 356°
2026-05-08 07:11 44.83516 0.10734 32193 ft 454 kts 356°
2026-05-08 07:11 44.86670 0.10805 32467 ft 453 kts 356°
2026-05-08 07:11 44.89813 0.10877 32757 ft 452 kts 356°
2026-05-08 07:11 44.92955 0.10948 33036 ft 451 kts 356°
2026-05-08 07:12 44.96090 0.11018 33287 ft 451 kts 355°
2026-05-08 07:12 44.99226 0.11089 33536 ft 450 kts 355°
2026-05-08 07:12 45.02307 0.10858 34046 ft 437 kts 346°
2026-05-08 07:12 45.05263 0.10014 34344 ft 431 kts 340°
2026-05-08 07:13 45.10802 0.06801 34483 ft 432 kts 330°
2026-05-08 07:13 45.13498 0.04931 34674 ft 431 kts 330°
2026-05-08 07:13 45.16193 0.03059 34880 ft 431 kts 330°
2026-05-08 07:14 45.18892 0.01192 35044 ft 432 kts 330°
2026-05-08 07:14 45.21597 -0.00668 35235 ft 432 kts 330°
2026-05-08 07:14 45.27049 -0.04400 35389 ft 438 kts 330°
2026-05-08 07:15 45.29791 -0.06274 35589 ft 437 kts 330°
2026-05-08 07:15 45.32531 -0.08145 35800 ft 437 kts 330°
2026-05-08 07:15 45.35269 -0.10018 35933 ft 438 kts 330°
2026-05-08 07:15 45.38021 -0.11904 35944 ft 440 kts 330°
2026-05-08 07:16 45.43530 -0.15685 35958 ft 438 kts 330°
2026-05-08 07:16 45.49006 -0.19451 35959 ft 436 kts 330°
2026-05-08 07:17 45.54419 -0.23184 35967 ft 435 kts 330°
2026-05-08 07:17 45.59857 -0.26943 35981 ft 434 kts 330°
2026-05-08 07:18 45.65282 -0.30737 35965 ft 433 kts 327°
2026-05-08 07:18 45.70132 -0.35691 35971 ft 428 kts 318°
2026-05-08 07:19 45.74774 -0.41022 35957 ft 428 kts 318°
2026-05-08 07:19 45.79438 -0.46346 35965 ft 429 kts 318°
2026-05-08 07:20 45.84119 -0.51659 35957 ft 430 kts 318°
2026-05-08 07:20 45.88808 -0.56981 35954 ft 430 kts 318°
2026-05-08 07:21 45.93496 -0.62314 35957 ft 430 kts 318°
2026-05-08 07:21 45.98182 -0.67658 35975 ft 430 kts 318°
2026-05-08 07:22 46.02871 -0.73017 35963 ft 430 kts 318°
2026-05-08 07:22 46.07557 -0.78384 35957 ft 430 kts 318°
2026-05-08 07:23 46.12242 -0.83763 35954 ft 431 kts 318°
2026-05-08 07:23 46.16929 -0.89156 35975 ft 431 kts 318°
2026-05-08 07:24 46.21660 -0.94493 35961 ft 434 kts 323°
2026-05-08 07:24 46.26911 -0.98750 35964 ft 437 kts 328°
2026-05-08 07:25 46.32274 -1.02882 35965 ft 437 kts 328°
2026-05-08 07:26 46.40294 -1.09145 35971 ft 437 kts 328°
2026-05-08 07:26 46.45627 -1.13357 35964 ft 436 kts 327°
2026-05-08 07:27 46.50953 -1.17580 35964 ft 436 kts 327°
2026-05-08 07:27 46.56274 -1.21808 35962 ft 436 kts 327°
2026-05-08 07:28 46.61600 -1.26050 35971 ft 437 kts 327°
2026-05-08 07:28 46.66925 -1.30301 35974 ft 437 kts 327°
2026-05-08 07:29 46.72253 -1.34562 35969 ft 437 kts 327°
2026-05-08 07:29 46.77577 -1.38831 35971 ft 437 kts 327°
2026-05-08 07:30 46.82901 -1.43109 35967 ft 437 kts 327°
2026-05-08 07:30 46.88227 -1.47399 35972 ft 437 kts 327°
2026-05-08 07:31 46.93548 -1.51694 35957 ft 437 kts 327°
2026-05-08 07:31 46.98865 -1.55996 35972 ft 437 kts 327°
2026-05-08 07:32 47.04182 -1.60308 35973 ft 436 kts 327°
2026-05-08 07:32 47.09489 -1.64621 35965 ft 436 kts 327°
2026-05-08 07:33 47.13902 -1.68216 35961 ft 436 kts 327°
2026-05-08 07:33 47.20075 -1.73256 35970 ft 437 kts 327°
2026-05-08 07:34 47.25390 -1.77606 35970 ft 437 kts 327°
2026-05-08 07:34 47.30704 -1.81965 35974 ft 437 kts 327°
2026-05-08 07:35 47.35152 -1.85621 35966 ft 437 kts 327°
2026-05-08 07:35 47.40461 -1.89995 35977 ft 437 kts 327°
2026-05-08 07:36 47.45769 -1.94379 35969 ft 437 kts 327°
2026-05-08 07:36 47.51068 -1.98764 35971 ft 437 kts 327°
2026-05-08 07:37 47.56374 -2.03167 35973 ft 437 kts 327°
2026-05-08 07:37 47.61673 -2.07573 35983 ft 437 kts 327°
2026-05-08 07:38 47.66937 -2.11962 35972 ft 437 kts 327°
2026-05-08 07:38 47.72244 -2.16396 35986 ft 438 kts 327°
2026-05-08 07:39 47.77558 -2.20846 35980 ft 439 kts 327°
2026-05-08 07:39 47.82879 -2.25313 35987 ft 439 kts 327°
2026-05-08 07:40 47.88191 -2.29782 35984 ft 439 kts 327°
2026-05-08 07:40 47.93502 -2.34261 35983 ft 438 kts 327°
2026-05-08 07:41 47.98808 -2.38747 35992 ft 438 kts 327°
2026-05-08 07:41 48.04107 -2.43238 35994 ft 438 kts 327°
2026-05-08 07:42 48.09400 -2.47734 35984 ft 437 kts 327°
2026-05-08 07:42 48.14685 -2.52235 35992 ft 437 kts 327°
2026-05-08 07:43 48.19964 -2.56741 35996 ft 436 kts 326°
2026-05-08 07:43 48.25241 -2.61257 35996 ft 437 kts 326°
2026-05-08 07:44 48.30519 -2.65784 35992 ft 437 kts 326°
2026-05-08 07:44 48.35799 -2.70323 36001 ft 437 kts 326°
2026-05-08 07:45 48.41077 -2.74872 36015 ft 437 kts 326°
2026-05-08 07:45 48.46354 -2.79430 36002 ft 437 kts 326°
2026-05-08 07:46 48.51623 -2.83993 36019 ft 437 kts 326°
2026-05-08 07:46 48.56888 -2.88564 36027 ft 436 kts 326°
2026-05-08 07:47 48.62144 -2.93138 36040 ft 436 kts 326°
2026-05-08 07:47 48.67365 -2.97692 36020 ft 436 kts 326°
2026-05-08 07:48 48.72620 -3.02287 36017 ft 436 kts 326°
2026-05-08 07:48 48.77865 -3.06886 36011 ft 436 kts 326°
2026-05-08 07:49 48.83124 -3.11507 36019 ft 437 kts 326°
2026-05-08 07:49 48.88389 -3.16145 36023 ft 438 kts 326°
2026-05-08 07:50 48.93665 -3.20804 36021 ft 439 kts 326°
2026-05-08 07:50 48.98943 -3.25476 36021 ft 439 kts 326°
2026-05-08 07:51 49.04224 -3.30163 36042 ft 439 kts 326°
2026-05-08 07:51 49.09501 -3.34858 36027 ft 439 kts 326°
2026-05-08 07:52 49.14776 -3.39562 36024 ft 439 kts 326°
2026-05-08 07:52 49.20044 -3.44273 36024 ft 438 kts 326°
2026-05-08 07:53 49.25304 -3.48989 36039 ft 438 kts 326°
2026-05-08 07:53 49.30561 -3.53711 36028 ft 438 kts 326°
2026-05-08 07:54 49.36138 -3.57606 36029 ft 444 kts 335°
2026-05-08 07:54 49.41970 -3.60801 36025 ft 446 kts 336°
2026-05-08 07:55 49.47808 -3.64049 36037 ft 447 kts 335°
2026-05-08 07:55 49.53641 -3.67374 36026 ft 447 kts 335°
2026-05-08 07:56 49.59471 -3.70724 36023 ft 448 kts 335°
2026-05-08 07:56 49.65310 -3.74082 36025 ft 448 kts 335°
2026-05-08 07:57 49.71435 -3.76142 36033 ft 457 kts 352°
2026-05-08 07:57 49.77848 -3.75724 36027 ft 463 kts
2026-05-08 07:58 49.84272 -3.74836 36020 ft 463 kts
2026-05-08 07:58 49.90698 -3.73997 36024 ft 463 kts 360°
2026-05-08 07:59 49.97078 -3.73222 36026 ft 463 kts 359°
2026-05-08 07:59 50.03503 -3.72458 36021 ft 463 kts 359°
2026-05-08 08:00 50.09971 -3.71686 36022 ft 463 kts 359°
2026-05-08 08:00 50.16352 -3.70920 36041 ft 463 kts 359°
2026-05-08 08:01 50.22776 -3.70145 36029 ft 463 kts 360°
2026-05-08 08:01 50.29205 -3.69368 36022 ft 463 kts 360°
2026-05-08 08:02 50.35630 -3.68589 36033 ft 463 kts 360°
2026-05-08 08:02 50.41981 -3.68840 36034 ft 452 kts 345°
2026-05-08 08:03 50.47888 -3.71773 36029 ft 444 kts 334°
2026-05-08 08:03 50.53617 -3.75419 36027 ft 444 kts 333°
2026-05-08 08:04 50.59358 -3.79060 36037 ft 445 kts 334°
2026-05-08 08:04 50.65117 -3.82668 36025 ft 446 kts 334°
2026-05-08 08:05 50.70892 -3.86274 36019 ft 447 kts 334°
2026-05-08 08:05 50.76673 -3.89890 36023 ft 447 kts 334°
2026-05-08 08:06 50.82449 -3.93514 36043 ft 447 kts 334°
2026-05-08 08:06 50.88222 -3.97147 36031 ft 447 kts 334°
2026-05-08 08:07 50.93999 -4.00793 36024 ft 447 kts 334°
2026-05-08 08:07 50.99774 -4.04447 36026 ft 447 kts 334°
2026-05-08 08:08 51.05545 -4.08108 36028 ft 446 kts 334°
2026-05-08 08:08 51.11313 -4.11777 36028 ft 446 kts 334°
2026-05-08 08:09 51.17080 -4.15456 36025 ft 447 kts 334°
2026-05-08 08:09 51.22844 -4.19143 36029 ft 446 kts 334°
2026-05-08 08:10 51.28608 -4.22840 36036 ft 447 kts 334°
2026-05-08 08:10 51.34376 -4.26550 35994 ft 447 kts 334°
2026-05-08 08:10 51.37293 -4.28432 35156 ft 451 kts 333°
2026-05-08 08:11 51.40129 -4.30253 35030 ft 428 kts 333°
2026-05-08 08:11 51.42822 -4.32009 34900 ft 408 kts 331°
2026-05-08 08:11 51.45347 -4.33834 34800 ft 389 kts 329°
2026-05-08 08:11 51.47736 -4.35659 34691 ft 371 kts 328°
2026-05-08 08:12 51.49979 -4.37399 34631 ft 356 kts 328°
2026-05-08 08:12 51.52165 -4.39095 34457 ft 343 kts 328°
2026-05-08 08:12 51.54294 -4.40744 34101 ft 337 kts 327°
2026-05-08 08:12 51.56394 -4.42365 33604 ft 334 kts 328°
2026-05-08 08:13 51.58479 -4.43972 33075 ft 331 kts 328°
2026-05-08 08:13 51.60552 -4.45565 32582 ft 328 kts 328°
2026-05-08 08:13 51.62601 -4.47137 32142 ft 325 kts 328°
2026-05-08 08:13 51.64627 -4.48690 31738 ft 321 kts 328°
2026-05-08 08:14 51.66629 -4.50227 31317 ft 317 kts 328°
2026-05-08 08:14 51.68609 -4.51749 30884 ft 314 kts 328°
2026-05-08 08:14 51.70573 -4.53259 30443 ft 312 kts 328°
2026-05-08 08:14 51.72546 -4.54780 29937 ft 315 kts 328°
2026-05-08 08:15 51.74546 -4.56323 29553 ft 324 kts 329°
2026-05-08 08:15 51.76574 -4.58066 29238 ft 335 kts 321°
2026-05-08 08:15 51.78430 -4.60436 28894 ft 346 kts 311°
2026-05-08 08:15 51.80051 -4.63362 28531 ft 349 kts 306°
2026-05-08 08:16 51.81569 -4.66351 28182 ft 339 kts 306°
2026-05-08 08:16 51.83029 -4.69272 27831 ft 329 kts 306°
2026-05-08 08:16 51.84447 -4.72104 27498 ft 320 kts 306°
2026-05-08 08:16 51.85834 -4.74864 27190 ft 313 kts 306°
2026-05-08 08:17 51.87201 -4.77575 26878 ft 311 kts 306°
2026-05-08 08:17 51.88580 -4.80307 26582 ft 319 kts 306°
2026-05-08 08:17 51.90022 -4.83165 26283 ft 337 kts 306°
2026-05-08 08:17 51.91523 -4.86135 25919 ft 342 kts 307°
2026-05-08 08:18 51.93031 -4.89110 25571 ft 340 kts 307°
2026-05-08 08:18 51.94528 -4.92066 25230 ft 339 kts 306°
2026-05-08 08:18 51.96017 -4.95010 24885 ft 337 kts 306°
2026-05-08 08:18 51.97497 -4.97941 24550 ft 335 kts 306°
2026-05-08 08:19 51.98970 -5.00863 24224 ft 334 kts 306°
2026-05-08 08:19 52.00473 -5.03723 23888 ft 334 kts 313°
2026-05-08 08:19 52.02249 -5.06152 23582 ft 335 kts 322°
2026-05-08 08:19 52.04261 -5.08040 23261 ft 334 kts 330°
2026-05-08 08:20 52.06333 -5.09722 22916 ft 332 kts 330°
2026-05-08 08:20 52.08399 -5.11365 22591 ft 330 kts 331°
2026-05-08 08:20 52.10453 -5.13001 22266 ft 327 kts 330°
2026-05-08 08:20 52.12463 -5.14613 21943 ft 325 kts 330°
2026-05-08 08:21 52.14508 -5.16266 21625 ft 323 kts 330°
2026-05-08 08:21 52.15839 -5.17346 21416 ft 322 kts 330°
2026-05-08 08:21 52.17840 -5.18975 21110 ft 321 kts 330°
2026-05-08 08:21 52.19831 -5.20601 20798 ft 319 kts 330°
2026-05-08 08:22 52.21812 -5.22223 20471 ft 318 kts 330°
2026-05-08 08:22 52.23783 -5.23840 20160 ft 317 kts 330°
2026-05-08 08:22 52.25748 -5.25452 19851 ft 316 kts 330°
2026-05-08 08:22 52.27708 -5.27063 19555 ft 315 kts 330°
2026-05-08 08:23 52.29666 -5.28674 19325 ft 317 kts 330°
2026-05-08 08:23 52.31638 -5.30381 19096 ft 324 kts 327°
2026-05-08 08:23 52.33602 -5.32240 18867 ft 329 kts 327°
2026-05-08 08:23 52.35577 -5.34155 18637 ft 330 kts 326°
2026-05-08 08:24 52.37543 -5.36069 18387 ft 328 kts 326°
2026-05-08 08:24 52.39505 -5.37973 18119 ft 327 kts 327°
2026-05-08 08:24 52.41461 -5.39866 17856 ft 326 kts 327°
2026-05-08 08:24 52.43427 -5.41766 17605 ft 339 kts 327°
2026-05-08 08:25 52.45557 -5.43828 17387 ft 369 kts 327°
2026-05-08 08:25 52.47848 -5.46044 17146 ft 395 kts 327°
2026-05-08 08:25 52.50291 -5.48402 16893 ft 419 kts 328°
2026-05-08 08:25 52.52840 -5.50861 16632 ft 427 kts 328°
2026-05-08 08:26 52.55407 -5.53333 16359 ft 426 kts 328°
2026-05-08 08:26 52.57954 -5.55788 16092 ft 424 kts 328°
2026-05-08 08:26 52.60494 -5.58240 15831 ft 422 kts 328°
2026-05-08 08:26 52.63017 -5.60682 15572 ft 420 kts 328°
2026-05-08 08:27 52.65533 -5.63122 15321 ft 419 kts 328°
2026-05-08 08:27 52.68040 -5.65557 15069 ft 418 kts 328°
2026-05-08 08:27 52.70537 -5.67986 14821 ft 416 kts 328°
2026-05-08 08:27 52.73026 -5.70411 14574 ft 415 kts 328°
2026-05-08 08:28 52.75509 -5.72834 14328 ft 414 kts 328°
2026-05-08 08:28 52.77981 -5.75248 14090 ft 413 kts 328°
2026-05-08 08:28 52.80448 -5.77662 13840 ft 411 kts 328°
2026-05-08 08:28 52.82904 -5.80067 13571 ft 410 kts 328°
2026-05-08 08:29 52.85351 -5.82466 13301 ft 408 kts 328°
2026-05-08 08:29 52.87792 -5.84862 13033 ft 407 kts 328°
2026-05-08 08:29 52.90221 -5.87251 12768 ft 405 kts 328°
2026-05-08 08:29 52.92635 -5.89628 12507 ft 404 kts 328°
2026-05-08 08:30 52.95040 -5.92015 12242 ft 401 kts 326°
2026-05-08 08:30 52.97244 -5.94797 11977 ft 397 kts 317°
2026-05-08 08:30 53.01270 -6.00898 11399 ft 382 kts 316°
2026-05-08 08:31 53.03203 -6.03838 11039 ft 372 kts 316°
2026-05-08 08:31 53.05081 -6.06674 10662 ft 356 kts 316°
2026-05-08 08:31 53.06888 -6.09384 10299 ft 347 kts 316°
2026-05-08 08:31 53.08663 -6.12038 10076 ft 338 kts 316°
2026-05-08 08:32 53.10349 -6.14553 9912 ft 320 kts 316°
2026-05-08 08:32 53.11943 -6.16927 9907 ft 297 kts 315°
2026-05-08 08:32 53.13436 -6.19151 9802 ft 281 kts 315°
2026-05-08 08:32 53.14877 -6.21304 9377 ft 277 kts 315°
2026-05-08 08:33 53.16305 -6.23442 8890 ft 276 kts 316°
2026-05-08 08:33 53.17724 -6.25567 8435 ft 273 kts 316°
2026-05-08 08:33 53.19122 -6.27661 8104 ft 267 kts 316°
2026-05-08 08:33 53.20484 -6.29703 7822 ft 260 kts 316°
2026-05-08 08:34 53.21815 -6.31698 7553 ft 255 kts 316°
2026-05-08 08:34 53.23133 -6.33678 7308 ft 255 kts 316°
2026-05-08 08:34 53.24453 -6.35661 7050 ft 255 kts 316°
2026-05-08 08:34 53.25771 -6.37644 6797 ft 255 kts 316°
2026-05-08 08:35 53.27086 -6.39624 6536 ft 254 kts 316°
2026-05-08 08:35 53.28397 -6.41597 6273 ft 254 kts 316°
2026-05-08 08:35 53.29706 -6.43572 6010 ft 253 kts 317°
2026-05-08 08:35 53.31015 -6.45546 5737 ft 253 kts 317°
2026-05-08 08:36 53.32320 -6.47515 5479 ft 252 kts 317°
2026-05-08 08:36 53.33619 -6.49478 5213 ft 251 kts 317°
2026-05-08 08:36 53.34906 -6.51425 5070 ft 246 kts 317°
2026-05-08 08:36 53.36150 -6.53307 4942 ft 236 kts 317°
2026-05-08 08:37 53.37334 -6.55098 4829 ft 223 kts 317°
2026-05-08 08:37 53.38452 -6.56793 4736 ft 212 kts 317°
2026-05-08 08:37 53.39527 -6.58424 4646 ft 206 kts 317°
2026-05-08 08:37 53.40580 -6.60023 4559 ft 203 kts 317°
2026-05-08 08:38 53.41623 -6.61607 4405 ft 201 kts 317°
2026-05-08 08:38 53.42765 -6.62926 4178 ft 202 kts 344°
2026-05-08 08:38 53.44109 -6.62715 3994 ft 197 kts 31°
2026-05-08 08:38 53.44937 -6.60963 3812 ft 197 kts 77°
2026-05-08 08:39 53.45091 -6.58673 3622 ft 200 kts 87°
2026-05-08 08:39 53.45148 -6.56344 3516 ft 197 kts 89°
2026-05-08 08:39 53.45153 -6.54041 3298 ft 198 kts 93°
2026-05-08 08:39 53.45061 -6.51743 3039 ft 196 kts 96°
2026-05-08 08:40 53.44935 -6.49475 2772 ft 194 kts 97°
2026-05-08 08:40 53.44806 -6.47252 2524 ft 189 kts 96°
2026-05-08 08:40 53.44681 -6.45090 2255 ft 184 kts 96°
2026-05-08 08:40 53.44561 -6.42997 2011 ft 175 kts 96°
2026-05-08 08:41 53.44450 -6.41045 1803 ft 163 kts 96°
2026-05-08 08:41 53.44342 -6.39152 1566 ft 161 kts 95°
2026-05-08 08:41 53.44236 -6.37280 1334 ft 162 kts 95°
2026-05-08 08:41 53.44131 -6.35421 1102 ft 156 kts 95°
2026-05-08 08:42 53.44031 -6.33647 892 ft 150 kts 94°
2026-05-08 08:42 53.43934 -6.31926 677 ft 147 kts 94°
2026-05-08 08:42 53.43838 -6.30233 478 ft 149 kts 94°
2026-05-08 08:42 53.43746 -6.28501 284 ft 152 kts 94°
2026-05-08 08:43 53.43644 -6.26761 211 ft 140 kts 95°
2026-05-08 08:43 53.43578 -6.25530 215 ft 52 kts 96°
2026-05-08 08:43 53.43486 -6.25103 216 ft 30 kts 120°
2026-05-08 08:43 53.43402 -6.25001 216 ft 15 kts 204°
2026-05-08 08:44 53.43384 -6.25162 215 ft 15 kts 275°
2026-05-08 08:44 53.43395 -6.25327 212 ft 14 kts 275°
2026-05-08 08:44 53.43402 -6.25486 217 ft 13 kts 275°
2026-05-08 08:44 53.43395 -6.25632 213 ft 13 kts 227°
2026-05-08 08:45 53.43312 -6.25620 210 ft 13 kts 156°
2026-05-08 08:45 53.43233 -6.25562 212 ft 12 kts 156°
2026-05-08 08:45 53.43148 -6.25500 212 ft 16 kts 157°
2026-05-08 08:45 53.43030 -6.25417 212 ft 20 kts 157°
2026-05-08 08:46 53.42947 -6.25307 212 ft 14 kts 83°
2026-05-08 08:46 53.42960 -6.25146 210 ft 14 kts 94°
2026-05-08 08:46 53.42955 -6.25036 214 ft 4 kts 86°
2026-05-08 08:46 53.42978 -6.25015 212 ft 4 kts 14°
2026-05-08 08:47 53.43004 -6.25009 214 ft 3 kts
2026-05-08 08:47 53.43011 -6.25009 212 ft 0 kts
2026-05-08 08:47 53.43011 -6.25008 212 ft 0 kts